#timestamp,LO_Frequency,Hit,StdDev 
1520715615.6,286046999.4,N
1520715635.4,286046998.8,N
1520715655.3,286046998.4,N
1520715675.1,286046998.8,N
1520715695.8,286046998.6,N
1520715715.7,286046998.6,N
1520715735.5,286046998.8,N
1520715755.4,286046998.4,N
1520715775.2,286046998.4,N
1520715795.0,286046998.7,N
1520715795.9,286046998.7,N
1520715815.8,286047001.1,N
1520715835.6,286046996.5,Y
1520715855.4,286047001.1,P
1520715875.3,286046998.4,N
1520715895.1,286046999.4,N
1520715915.9,286046999.1,N
1520715935.7,286046998.8,N
1520715955.5,286047001.2,N
1520715975.4,286047001.1,N
1520715995.2,286047000.7,N
1520716015.0,286047000.9,N
1520716015.9,286047000.9,N
1520716035.8,286047001.1,N
1520716055.6,286047000.8,N
1520716075.5,286047000.9,N
1520716095.3,286047000.7,N
1520716115.1,286047000.6,N
1520716135.9,286047000.4,N
1520716155.7,286047000.6,N
1520716175.6,286047000.1,N
1520716195.4,286047002.5,N
1520716215.2,286047002.4,N
1520716235.1,286047000.0,N
1520716236.0,286047000.0,N
1520716255.8,286047000.3,N
1520716275.6,286047001.0,N
1520716295.5,286047000.1,N
1520716315.3,286046999.8,N
1520716335.2,286047002.7,N
1520716355.9,286046999.7,N
1520716405.8,286047004.1,E
1520716415.7,286047002.5,N
1520716435.5,286046998.7,P
1520716455.4,286046999.2,N
1520716475.2,286046999.4,N
1520716495.0,286046996.5,N
1520716495.9,286046996.5,N
1520716515.8,286046999.1,N
1520716535.6,286046999.3,N
1520716555.5,286046998.2,N
1520716575.3,286046998.5,N
1520716595.1,286046998.7,N
1520716615.9,286046999.0,N
1520716635.7,286046998.1,N
1520716655.5,286046998.8,N
1520716675.4,286047000.9,N
1520716695.2,286046998.3,N
1520716715.1,286046999.0,N
1520716716.0,286046999.0,N
1520716735.8,286046999.1,N
1520716755.6,286046999.0,N
1520716775.5,286046999.2,N
1520716795.3,286046999.5,N
1520716815.2,286046998.9,N
1520716835.9,286047000.9,N
1520716855.7,286046999.8,N
1520716875.6,286047000.3,N
1520716895.4,286047001.6,N
1520716915.2,286047002.1,N
1520716935.1,286047004.0,N
1520716936.0,286047004.0,N
1520716955.8,286047003.7,N
1520716975.7,286047004.3,N
1520716995.5,286047002.2,N
1520717015.3,286047001.8,N
1520717035.2,286047002.1,N
1520717055.0,286047001.8,N
1520717055.9,286047001.8,N
1520717075.7,286047004.1,N
1520717095.6,286047004.1,N
1520717115.4,286047003.9,N
1520717135.3,286047002.1,N
1520717155.1,286047001.6,N
1520717156.0,286047001.6,N
1520717175.8,286047001.9,N
1520717195.7,286047002.2,N
1520717215.5,286047004.4,N
1520717235.4,286047003.8,N
1520717255.2,286047003.8,N
1520717275.0,286047003.1,N
1520717275.9,286047003.1,N
1520717295.8,286047003.6,N
1520717315.6,286047003.6,N
1520717335.5,286047003.6,N
1520717355.3,286047003.6,N
1520717375.1,286047004.0,Y
1520717395.9,286047000.0,P
1520717415.7,286047000.1,N
1520717435.5,286046999.8,N
1520717455.4,286047000.5,N
1520717475.2,286047001.0,N
1520717495.1,286047000.2,N
1520717496.0,286047000.2,N
1520717515.8,286047000.9,N
1520717535.6,286047000.0,N
1520717555.5,286047000.2,N
1520717575.3,286047002.4,N
1520717595.1,286046999.7,N
1520717615.9,286047002.4,N
1520717635.7,286047002.6,N
1520717655.6,286047002.2,N
1520717675.4,286047002.8,N
1520717695.2,286047002.8,N
1520717715.1,286047000.5,N
1520717716.0,286047000.5,N
1520717735.8,286047002.4,N
1520717755.6,286047002.3,N
1520717775.5,286047002.6,N
1520717795.3,286047002.5,N
1520717815.2,286047002.6,N
1520717835.9,286047002.1,N
1520717855.7,286046999.8,N
1520717875.6,286047002.2,N
1520717895.4,286047001.9,N
1520717915.2,286047002.0,N
1520717935.1,286047001.6,N
1520717936.0,286047001.6,N
1520717955.8,286047004.4,Y
1520717975.7,286047002.6,P
1520717995.5,286046999.8,N
1520718015.3,286047002.0,N
1520718035.2,286047002.0,N
1520718055.0,286047001.6,N
1520718055.9,286047001.6,N
1520718075.8,286047001.9,N
1520718095.6,286047002.5,Y
1520718115.4,286047000.5,P
1520718135.3,286047000.9,N
1520718155.1,286047001.0,N
1520718175.9,286046998.3,Y
1520718195.7,286046998.4,P
1520718215.5,286046998.4,N
1520718235.4,286046999.6,N
1520718255.2,286046999.5,N
1520718275.0,286046999.5,N
1520718275.9,286046999.5,N
1520718295.8,286046999.3,N
1520718315.6,286046996.6,Y
1520718335.5,286046999.5,P
1520718355.3,286046999.5,P
1520718375.1,286046998.4,P
1520718395.9,286047000.7,N
1520718415.7,286047001.1,N
1520718435.5,286046998.1,N
1520718455.4,286047000.3,N
1520718475.2,286047001.0,N
1520718495.1,286047000.4,N
1520718496.0,286047000.4,N
1520718515.8,286047002.3,N
1520718535.6,286046999.7,N
1520718555.5,286047000.6,N
1520718575.3,286047000.1,N
1520718595.2,286047002.8,N
1520718615.9,286047002.5,N
1520718635.7,286047002.6,N
1520718655.6,286047001.5,N
1520718675.4,286047002.8,N
1520718695.2,286047000.6,N
1520718715.1,286047001.0,N
1520718716.0,286047001.0,N
1520718735.8,286047000.8,N
1520718755.7,286046998.6,N
1520718775.5,286047000.7,N
1520718795.3,286047001.1,N
1520718815.2,286047000.0,N
1520718835.0,286047000.6,N
1520718835.9,286047000.6,N
1520718855.8,286046998.1,N
1520718875.6,286046998.2,N
1520718895.4,286047001.1,N
1520718915.3,286046999.9,N
1520718935.1,286047002.7,N
1520718955.8,286046999.9,N
1520718975.7,286047000.0,N
1520718995.5,286047000.1,N
1520719015.4,286047002.5,N
1520719035.2,286047002.7,N
1520719055.0,286047000.9,N
1520719055.9,286047000.9,N
1520719075.8,286047000.9,N
1520719095.6,286047000.9,N
1520719115.5,286046998.4,N
1520719135.3,286046998.8,N
1520719155.1,286046998.7,N
1520719175.9,286046998.4,N
1520719195.7,286046998.2,N
